Time,TemperatureF,DewpointF,PressureIn,WindDirection,WindDirectionDegrees,WindSpeedMPH,WindSpeedGustMPH,Humidity,HourlyPrecipIn,Conditions,Clouds,dailyrainin,SoftwareType,DateUTC
2013-03-08 00:11:00,26.0,24.0,-100.00,NNE,17,6.0,9.0,89,0.00,,,0.00,,2013-03-08 07:11:00,
2013-03-08 00:21:00,26.0,24.0,-100.00,NNE,17,6.0,9.0,89,0.00,,,0.00,,2013-03-08 07:21:00,
2013-03-08 00:31:00,26.0,24.0,-100.00,NNE,17,6.0,9.0,89,0.00,,,0.00,,2013-03-08 07:31:00,
2013-03-08 00:41:00,26.0,24.0,-100.00,NNE,17,6.0,9.0,89,0.00,,,0.00,,2013-03-08 07:41:00,
2013-03-08 00:51:00,26.0,24.0,-100.00,NNE,17,6.0,9.0,89,0.00,,,0.00,,2013-03-08 07:51:00,
2013-03-08 01:11:00,27.0,24.0,-100.00,North,9,5.0,8.0,89,0.00,,,0.00,,2013-03-08 08:11:00,
2013-03-08 01:21:00,27.0,24.0,-100.00,North,9,5.0,8.0,89,0.00,,,0.00,,2013-03-08 08:21:00,
2013-03-08 01:31:00,27.0,24.0,-100.00,North,9,5.0,8.0,89,0.00,,,0.00,,2013-03-08 08:31:00,
2013-03-08 01:41:00,27.0,24.0,-100.00,North,9,5.0,8.0,89,0.00,,,0.00,,2013-03-08 08:41:00,
2013-03-08 01:52:00,27.0,24.0,-100.00,North,9,5.0,8.0,89,0.00,,,0.00,,2013-03-08 08:52:00,
2013-03-08 02:21:00,27.0,24.0,-100.00,North,9,5.0,7.0,89,0.00,,,0.00,,2013-03-08 09:21:00,
2013-03-08 02:32:00,27.0,24.0,-100.00,North,9,5.0,7.0,89,0.00,,,0.00,,2013-03-08 09:32:00,
2013-03-08 02:42:00,27.0,24.0,-100.00,North,9,5.0,7.0,89,0.00,,,0.00,,2013-03-08 09:42:00,
2013-03-08 02:51:00,27.0,24.0,-100.00,North,9,5.0,7.0,89,0.00,,,0.00,,2013-03-08 09:51:00,
2013-03-08 03:21:00,27.0,24.0,-100.00,NNE,13,6.0,9.0,90,0.00,,,0.00,,2013-03-08 10:21:00,
2013-03-08 03:31:00,27.0,24.0,-100.00,NNE,13,6.0,9.0,90,0.00,,,0.00,,2013-03-08 10:31:00,
2013-03-08 03:41:00,27.0,24.0,-100.00,NNE,13,6.0,9.0,90,0.00,,,0.00,,2013-03-08 10:41:00,
2013-03-08 03:51:00,27.0,24.0,-100.00,NNE,13,6.0,9.0,90,0.00,,,0.00,,2013-03-08 10:51:00,
2013-03-08 04:21:00,27.0,25.0,-100.00,NNE,15,8.0,12.0,92,0.00,,,0.00,,2013-03-08 11:21:00,
2013-03-08 04:32:00,27.0,25.0,-100.00,NNE,15,8.0,12.0,92,0.00,,,0.00,,2013-03-08 11:32:00,
2013-03-08 04:41:00,27.0,25.0,-100.00,NNE,15,8.0,12.0,92,0.00,,,0.00,,2013-03-08 11:41:00,
2013-03-08 04:52:00,27.0,25.0,-100.00,NNE,15,8.0,12.0,92,0.00,,,0.00,,2013-03-08 11:52:00,
2013-03-08 05:11:00,27.0,25.0,-100.00,NE,41,5.0,7.0,92,0.00,,,0.00,,2013-03-08 12:11:00,
2013-03-08 05:22:00,27.0,25.0,-100.00,NE,41,5.0,7.0,92,0.00,,,0.00,,2013-03-08 12:22:00,
2013-03-08 05:32:00,27.0,25.0,-100.00,NE,41,5.0,7.0,92,0.00,,,0.00,,2013-03-08 12:32:00,
2013-03-08 05:42:00,27.0,25.0,-100.00,NE,41,5.0,7.0,92,0.00,,,0.00,,2013-03-08 12:42:00,
2013-03-08 05:52:00,27.0,25.0,-100.00,NE,41,5.0,7.0,92,0.00,,,0.00,,2013-03-08 12:52:00,
2013-03-08 06:11:00,26.0,24.0,-100.00,NE,39,1.0,2.0,93,0.00,,,0.00,,2013-03-08 13:11:00,
2013-03-08 06:21:00,26.0,24.0,-100.00,NE,39,1.0,2.0,93,0.00,,,0.00,,2013-03-08 13:21:00,
2013-03-08 06:32:00,26.0,24.0,-100.00,NE,39,1.0,2.0,93,0.00,,,0.00,,2013-03-08 13:32:00,
2013-03-08 06:42:00,26.0,24.0,-100.00,NE,39,1.0,2.0,93,0.00,,,0.00,,2013-03-08 13:42:00,
2013-03-08 06:52:00,26.0,24.0,-100.00,NE,39,1.0,2.0,93,0.00,,,0.00,,2013-03-08 13:52:00,
2013-03-08 07:22:00,26.0,24.0,-100.00,NE,40,5.0,7.0,93,0.00,,,-99.99,,2013-03-08 14:22:00,
2013-03-08 07:32:00,26.0,24.0,-100.00,NE,40,5.0,7.0,93,0.00,,,-99.99,,2013-03-08 14:32:00,
2013-03-08 07:42:00,26.0,24.0,-100.00,NE,40,5.0,7.0,93,0.00,,,-99.99,,2013-03-08 14:42:00,
2013-03-08 07:52:00,26.0,24.0,-100.00,NE,40,5.0,7.0,93,0.00,,,-99.99,,2013-03-08 14:52:00,
2013-03-08 08:11:00,26.0,24.0,-100.00,NNE,29,4.0,6.0,93,0.01,,,0.01,,2013-03-08 15:11:00,
2013-03-08 08:22:00,26.0,24.0,-100.00,NNE,29,4.0,6.0,93,0.01,,,0.01,,2013-03-08 15:22:00,
2013-03-08 08:32:00,26.0,24.0,-100.00,NNE,29,4.0,6.0,93,0.01,,,0.01,,2013-03-08 15:32:00,
2013-03-08 08:42:00,26.0,24.0,-100.00,NNE,29,4.0,6.0,93,0.01,,,0.01,,2013-03-08 15:42:00,
2013-03-08 08:52:00,26.0,24.0,-100.00,NNE,29,4.0,6.0,93,0.01,,,0.01,,2013-03-08 15:52:00,
2013-03-08 09:11:00,27.0,25.0,-100.00,NNE,31,4.0,7.0,91,0.02,,,0.03,,2013-03-08 16:11:00,
2013-03-08 09:21:00,27.0,25.0,-100.00,NNE,31,4.0,7.0,91,0.02,,,0.03,,2013-03-08 16:21:00,
2013-03-08 09:31:00,27.0,25.0,-100.00,NNE,31,4.0,7.0,91,0.02,,,0.03,,2013-03-08 16:31:00,
2013-03-08 09:41:00,27.0,25.0,-100.00,NNE,31,4.0,7.0,91,0.02,,,0.03,,2013-03-08 16:41:00,
2013-03-08 09:51:00,27.0,25.0,-100.00,NNE,31,4.0,7.0,91,0.02,,,0.03,,2013-03-08 16:51:00,
2013-03-08 10:21:00,29.0,26.0,-100.00,NNE,12,5.0,6.0,88,0.03,,,0.06,,2013-03-08 17:21:00,
2013-03-08 10:32:00,29.0,26.0,-100.00,NNE,12,5.0,6.0,88,0.03,,,0.06,,2013-03-08 17:32:00,
2013-03-08 10:41:00,29.0,26.0,-100.00,NNE,12,5.0,6.0,88,0.03,,,0.06,,2013-03-08 17:41:00,
2013-03-08 10:52:00,29.0,26.0,-100.00,NNE,12,5.0,6.0,88,0.03,,,0.06,,2013-03-08 17:52:00,
2013-03-08 11:21:00,30.0,27.0,-100.00,NNE,32,6.0,9.0,87,0.03,,,0.09,,2013-03-08 18:21:00,
2013-03-08 11:31:00,30.0,27.0,-100.00,NNE,32,6.0,9.0,87,0.03,,,0.09,,2013-03-08 18:31:00,
2013-03-08 11:42:00,30.0,27.0,-100.00,NNE,32,6.0,9.0,87,0.03,,,0.09,,2013-03-08 18:42:00,
2013-03-08 11:51:00,30.0,27.0,-100.00,NNE,32,6.0,9.0,87,0.03,,,0.09,,2013-03-08 18:51:00,
2013-03-08 12:11:00,33.0,28.0,-100.00,NNE,13,5.0,6.0,80,0.02,,,0.11,,2013-03-08 19:11:00,
2013-03-08 12:21:00,33.0,28.0,-100.00,NNE,13,5.0,6.0,80,0.02,,,0.11,,2013-03-08 19:21:00,
2013-03-08 12:32:00,33.0,28.0,-100.00,NNE,13,5.0,6.0,80,0.02,,,0.11,,2013-03-08 19:32:00,
2013-03-08 12:41:00,33.0,28.0,-100.00,NNE,13,5.0,6.0,80,0.02,,,0.11,,2013-03-08 19:41:00,
2013-03-08 12:51:00,33.0,28.0,-100.00,NNE,13,5.0,6.0,80,0.02,,,0.11,,2013-03-08 19:51:00,
2013-03-08 13:21:00,41.0,31.0,-100.00,North,357,1.0,2.0,68,0.01,,,0.12,,2013-03-08 20:21:00,
2013-03-08 13:31:00,41.0,31.0,-100.00,North,357,1.0,2.0,68,0.01,,,0.12,,2013-03-08 20:31:00,
2013-03-08 13:41:00,41.0,31.0,-100.00,North,357,1.0,2.0,68,0.01,,,0.12,,2013-03-08 20:41:00,
2013-03-08 13:52:00,41.0,31.0,-100.00,North,357,1.0,2.0,68,0.01,,,0.12,,2013-03-08 20:52:00,
2013-03-08 14:11:00,39.0,31.0,-100.00,NNE,22,1.0,2.0,72,0.00,,,0.12,,2013-03-08 21:11:00,
2013-03-08 14:21:00,39.0,31.0,-100.00,NNE,22,1.0,2.0,72,0.00,,,0.12,,2013-03-08 21:21:00,
2013-03-08 14:32:00,39.0,31.0,-100.00,NNE,22,1.0,2.0,72,0.00,,,0.12,,2013-03-08 21:32:00,
2013-03-08 14:41:00,39.0,31.0,-100.00,NNE,22,1.0,2.0,72,0.00,,,0.12,,2013-03-08 21:41:00,
2013-03-08 14:51:00,39.0,31.0,-100.00,NNE,22,1.0,2.0,72,0.00,,,0.12,,2013-03-08 21:51:00,
2013-03-08 15:11:00,41.0,32.0,-100.00,West,280,5.0,7.0,69,0.00,,,0.12,,2013-03-08 22:11:00,
2013-03-08 15:21:00,41.0,32.0,-100.00,West,280,5.0,7.0,69,0.00,,,0.12,,2013-03-08 22:21:00,
2013-03-08 15:32:00,41.0,32.0,-100.00,West,280,5.0,7.0,69,0.00,,,0.12,,2013-03-08 22:32:00,
2013-03-08 15:41:00,41.0,32.0,-100.00,West,280,5.0,7.0,69,0.00,,,0.12,,2013-03-08 22:41:00,
2013-03-08 15:52:00,41.0,32.0,-100.00,West,280,5.0,7.0,69,0.00,,,0.12,,2013-03-08 22:52:00,
2013-03-08 16:11:00,44.0,33.0,-100.00,WNW,288,2.0,5.0,64,0.00,,,0.12,,2013-03-08 23:11:00,
2013-03-08 16:21:00,44.0,33.0,-100.00,WNW,288,2.0,5.0,64,0.00,,,0.12,,2013-03-08 23:21:00,
2013-03-08 16:32:00,44.0,33.0,-100.00,WNW,288,2.0,5.0,64,0.00,,,0.12,,2013-03-08 23:32:00,
2013-03-08 16:41:00,44.0,33.0,-100.00,WNW,288,2.0,5.0,64,0.00,,,0.12,,2013-03-08 23:41:00,
2013-03-08 16:52:00,44.0,33.0,-100.00,WNW,288,2.0,5.0,64,0.00,,,0.12,,2013-03-08 23:52:00,
2013-03-08 17:11:00,47.0,33.0,-100.00,North,357,2.0,4.0,58,0.00,,,0.12,,2013-03-09 00:11:00,
2013-03-08 17:21:00,47.0,33.0,-100.00,North,357,2.0,4.0,58,0.00,,,0.12,,2013-03-09 00:21:00,
2013-03-08 18:21:00,46.0,34.0,-100.00,NNE,25,1.0,2.0,62,-99.99,,,0.12,,2013-03-09 01:21:00,
2013-03-08 20:11:00,29.0,26.0,-100.00,NNE,25,5.0,8.0,88,-99.99,,,0.12,,2013-03-09 03:11:00,
2013-03-08 20:21:00,29.0,26.0,-100.00,NNE,25,5.0,8.0,88,-99.99,,,0.12,,2013-03-09 03:21:00,
2013-03-08 20:31:00,29.0,26.0,-100.00,NNE,25,5.0,8.0,88,-99.99,,,0.12,,2013-03-09 03:31:00,
2013-03-08 20:41:00,29.0,26.0,-100.00,NNE,25,5.0,8.0,88,-99.99,,,0.12,,2013-03-09 03:41:00,
2013-03-08 20:52:00,29.0,26.0,-100.00,NNE,25,5.0,8.0,88,-99.99,,,0.12,,2013-03-09 03:52:00,
2013-03-08 21:11:00,26.0,23.0,-100.00,NNE,27,5.0,8.0,88,0.00,,,0.12,,2013-03-09 04:11:00,
2013-03-08 21:22:00,26.0,23.0,-100.00,NNE,27,5.0,8.0,88,0.00,,,0.12,,2013-03-09 04:22:00,
2013-03-08 21:31:00,26.0,23.0,-100.00,NNE,27,5.0,8.0,88,0.00,,,0.12,,2013-03-09 04:31:00,
2013-03-08 21:41:00,26.0,23.0,-100.00,NNE,27,5.0,8.0,88,0.00,,,0.12,,2013-03-09 04:41:00,
2013-03-08 21:51:00,26.0,23.0,-100.00,NNE,27,5.0,8.0,88,0.00,,,0.12,,2013-03-09 04:51:00,
2013-03-08 22:21:00,25.0,22.0,-100.00,NNE,19,5.0,7.0,90,0.00,,,0.12,,2013-03-09 05:21:00,
2013-03-08 22:31:00,25.0,22.0,-100.00,NNE,19,5.0,7.0,90,0.00,,,0.12,,2013-03-09 05:31:00,
2013-03-08 22:42:00,25.0,22.0,-100.00,NNE,19,5.0,7.0,90,0.00,,,0.12,,2013-03-09 05:42:00,
2013-03-08 22:52:00,25.0,22.0,-100.00,NNE,19,5.0,7.0,90,0.00,,,0.12,,2013-03-09 05:52:00,
2013-03-08 23:22:00,23.0,21.0,-100.00,North,354,2.0,4.0,93,0.00,,,0.12,,2013-03-09 06:22:00,
2013-03-08 23:31:00,23.0,21.0,-100.00,North,354,2.0,4.0,93,0.00,,,0.12,,2013-03-09 06:31:00,
2013-03-08 23:42:00,23.0,21.0,-100.00,North,354,2.0,4.0,93,0.00,,,0.12,,2013-03-09 06:42:00,
2013-03-08 23:51:00,23.0,21.0,-100.00,North,354,2.0,4.0,93,0.00,,,0.12,,2013-03-09 06:51:00,